[[{"header":{"parameterUnit":"m.s-1","parameterCategory":1,"la1":30.2992,"la2":30.254,"lo1":-89.0895,"lo2":-89.0443,"dy":0.0025,"dx":0.0025,"nx":19,"ny":19,"refTime":"2026-05-04T03:00:00:Z","depth":0,"parameterNumber":2,"parameterNumberName":"U-component_of_WINDS"},"data":[0,0,0,0.0485,0.0484,0.0474,0.0474,0.0469,0.0469,0,0,0,0,0,0,0,0,0,0,0,0.0492,0.0492,0.0485,0.0484,0.0474,0.0474,0.0469,0.0469,0,0,0,0,0,0,0,0,0,0,0,0.0492,0.0492,0.0492,0.0484,0.0474,0.0474,0.0469,0.0474,0,0,0,0,0,0,0,0,0,0,0.0483,0.0493,0.0492,0.0492,0.0484,0.0474,0.0474,0.0474,0.0474,0.0477,0,0.048,0,0.0474,0.0469,0.0469,0,0,0,0.0482,0.0493,0.0487,0.0492,0.0484,0.0474,0.0478,0.0474,0.0473,0.0477,0.0479,0.0479,0.0474,0.0469,0.0469,0.0494,0.0494,0,0,0.0483,0.0492,0.0487,0.0487,0.0487,0.0478,0.0477,0.0473,0.0478,0.0479,0.0479,0.0474,0.0469,0.0469,0.0494,0.0494,0,0,0,0.0486,0.0492,0.0486,0.0487,0.0484,0.0478,0.0477,0.0478,0.0475,0.0479,0.0474,0.0469,0.0469,0.0494,0.0494,0.0515,0,0,0,0.0486,0.0494,0.0486,0.0492,0.0485,0.0481,0.0482,0.0475,0.0474,0.0474,0.0469,0.0469,0.0493,0.0494,0.0514,0.0524,0,0,0,0.0491,0.0495,0.0494,0.0492,0.0488,0.048,0.0477,0.0475,0.0472,0.0469,0.0469,0.0493,0.0494,0.0513,0.0522,0.0534,0,0,0,0.0499,0.0513,0.0495,0.0509,0.0488,0.0493,0.0477,0.048,0.048,0.0469,0.0493,0.0494,0.0512,0.0521,0.0533,0.0546,0.0552,0,0,0.0522,0.0516,0.0523,0.0507,0.0517,0.0494,0.0508,0.0499,0.0491,0.0494,0.0495,0.0514,0.0522,0.0534,0.0582,0.0587,0,0,0,0.0534,0.0539,0.054,0.054,0.0534,0.053,0.0518,0.0516,0.0518,0.0494,0.0521,0.0525,0.0532,0.0538,0.0542,0.0548,0.0497,0.0497,0.0497,0.0579,0.0567,0.058,0.0568,0.0568,0.0557,0.0557,0.0552,0.054,0.0547,0.0548,0.0578,0.0586,0.0589,0.0595,0.0553,0.0553,0.0553,0.0553,0.0612,0.0618,0.0603,0.0609,0.0598,0.0604,0.0595,0.0586,0.0591,0.0576,0.0582,0.0567,0.0594,0.06,0.0555,0.0554,0.0554,0.0554,0.0554,0.0641,0.0642,0.0638,0.0639,0.0641,0.0629,0.0635,0.0624,0.0614,0.062,0.0621,0.062,0.062,0.0621,0.0621,0.0621,0.0621,0.0621,0.0621,0.0672,0.0667,0.0673,0.0669,0.0669,0.0667,0.0658,0.0658,0.0656,0.0648,0.0648,0.0637,0.0599,0.059,0.0623,0.0622,0.0622,0.0622,0.0622,0.0711,0.0701,0.0709,0.0709,0.0705,0.0709,0.0696,0.0698,0.0696,0.07,0.0688,0.0662,0.0655,0.0652,0.0645,0.0689,0.0689,0.0689,0.0689,0.0736,0.0731,0.0739,0.074,0.074,0.0729,0.0742,0.0736,0.0728,0.0727,0.0719,0.0709,0.0706,0.0701,0.0697,0.069,0.0745,0.0745,0.0745,0.076,0.0755,0.0767,0.0758,0.0755,0.0752,0.0765,0.0768,0.0757,0.0747,0.0727,0.0725,0.0707,0.0702,0.0692,0.0685,0.0672,0,0]},{"header":{"parameterUnit":"m.s-1","parameterCategory":1,"la1":30.2992,"la2":30.254,"lo1":-89.0895,"lo2":-89.0443,"dy":0.0025,"dx":0.0025,"nx":19,"ny":19,"refTime":"2026-05-04T03:00:00:Z","depth":0,"parameterNumber":3,"parameterNumberName":"V-component_of_WINDS"},"data":[0,0,0,-1.8863,-1.8862,-1.8806,-1.8805,-1.8746,-1.8745,0,0,0,0,0,0,0,0,0,0,0,-1.8888,-1.8888,-1.8863,-1.8862,-1.8806,-1.8805,-1.8746,-1.8745,0,0,0,0,0,0,0,0,0,0,0,-1.8888,-1.8888,-1.8888,-1.8861,-1.8806,-1.8805,-1.8746,-1.8783,0,0,0,0,0,0,0,0,0,0,-1.8835,-1.8869,-1.8888,-1.8888,-1.8861,-1.8806,-1.8805,-1.8785,-1.8781,-1.8777,0,-1.8777,0,-1.876,-1.8742,-1.8742,0,0,0,-1.8854,-1.8872,-1.8849,-1.8888,-1.8861,-1.8806,-1.8829,-1.8783,-1.8778,-1.8772,-1.8776,-1.8773,-1.8759,-1.8742,-1.8742,-1.8743,-1.8743,0,0,-1.8857,-1.8883,-1.8852,-1.8847,-1.8858,-1.8831,-1.8827,-1.878,-1.8786,-1.8776,-1.8772,-1.8758,-1.8742,-1.8741,-1.8743,-1.8743,0,0,0,-1.8871,-1.8886,-1.8863,-1.8849,-1.8839,-1.8829,-1.8825,-1.8788,-1.8778,-1.8771,-1.8758,-1.8741,-1.8741,-1.8742,-1.8743,-1.8785,0,0,0,-1.8873,-1.8894,-1.8865,-1.888,-1.884,-1.8813,-1.8835,-1.8782,-1.8775,-1.8758,-1.8741,-1.874,-1.8742,-1.8743,-1.8783,-1.88,0,0,0,-1.8889,-1.8895,-1.8891,-1.8882,-1.8859,-1.8813,-1.8801,-1.878,-1.8768,-1.8742,-1.874,-1.8742,-1.8742,-1.8781,-1.8797,-1.8807,0,0,0,-1.8913,-1.893,-1.8892,-1.8904,-1.8859,-1.884,-1.8801,-1.8785,-1.8768,-1.8741,-1.8742,-1.8743,-1.878,-1.8795,-1.8805,-1.8819,-1.8828,0,0,-1.8948,-1.8935,-1.894,-1.8904,-1.8899,-1.8847,-1.8846,-1.8806,-1.8779,-1.8756,-1.8756,-1.8783,-1.8797,-1.8806,-1.8868,-1.8875,0,0,0,-1.8959,-1.8963,-1.8956,-1.8941,-1.8911,-1.8885,-1.8843,-1.8827,-1.8806,-1.8773,-1.8789,-1.8796,-1.8801,-1.8806,-1.8812,-1.8813,-1.8747,-1.8747,-1.8747,-1.9046,-1.9011,-1.9016,-1.8973,-1.8959,-1.8913,-1.8898,-1.8868,-1.8838,-1.8842,-1.8835,-1.8877,-1.8884,-1.8888,-1.889,-1.884,-1.884,-1.884,-1.884,-1.9092,-1.9091,-1.9048,-1.9038,-1.9,-1.899,-1.8945,-1.8923,-1.8906,-1.888,-1.8882,-1.8856,-1.8897,-1.8896,-1.8843,-1.8842,-1.8842,-1.8842,-1.8842,-1.9145,-1.9138,-1.9119,-1.9091,-1.9074,-1.9029,-1.9015,-1.898,-1.8948,-1.895,-1.8937,-1.8936,-1.893,-1.8946,-1.8946,-1.8946,-1.8947,-1.8947,-1.8947,-1.9206,-1.9183,-1.9176,-1.9143,-1.9128,-1.9102,-1.9054,-1.9037,-1.9009,-1.8984,-1.8984,-1.8951,-1.8908,-1.8898,-1.8949,-1.8948,-1.8948,-1.8948,-1.8948,-1.9266,-1.9246,-1.9236,-1.922,-1.9176,-1.916,-1.9115,-1.9082,-1.9063,-1.9056,-1.9022,-1.8996,-1.898,-1.8975,-1.8966,-1.9031,-1.9031,-1.9031,-1.9031,-1.9309,-1.9297,-1.9277,-1.9254,-1.9226,-1.9184,-1.9169,-1.9131,-1.9087,-1.9072,-1.9057,-1.9042,-1.9039,-1.9024,-1.9018,-1.9009,-1.9084,-1.9084,-1.9084,-1.9343,-1.9326,-1.9322,-1.928,-1.9243,-1.9211,-1.9195,-1.9167,-1.9114,-1.9085,-1.9059,-1.9056,-1.9032,-1.9026,-1.8998,-1.8989,-1.8972,0,0]}]]